Location: Ward Pound Ridge Reservation
(41.2500°N, 73.6000°W)
Time: 09:42:37
(UTC-04:00)

Tiangong 2 - Pass Details

Date: 09 October 2017
Orbit: 388 x 391 km, 42.8° (Epoch: 23 October)

Event Time Altitude Azimuth Distance (km) Brightness Sun altitude
Exits shadow 06:28:24 - 250° (WSW) 1,634 3.7 -6.7°
Reaches altitude 10° 06:28:55 10° 249° (WSW) 1,418 3.4 -6.6°
Maximum altitude 06:32:07 77° 163° (SSE) 404 1.2 -6.0°
Drops below altitude 10° 06:35:20 10° 78° (ENE) 1,424 5.5 -5.4°
Sets 06:37:25 0° 76° (ENE) 2,281 6.7 -5.0°
